owner,sensor,date,latitude,longitude,air_pressure(mBar),qcFlag 
WAVCIS,ioos:station:WAVCIS:CSI03:1,2008-09-01T00:00:00Z,29.4412,-92.0613,1005.892,11111222 
WAVCIS,ioos:station:WAVCIS:CSI03:1,2008-09-01T01:00:00Z,29.4412,-92.0613,1006.169,11111222 
WAVCIS,ioos:station:WAVCIS:CSI03:1,2008-09-01T02:00:00Z,29.4412,-92.0613,1006.23,11111222 
WAVCIS,ioos:station:WAVCIS:CSI03:1,2008-09-01T03:00:00Z,29.4412,-92.0613,1006.295,11111222 
WAVCIS,ioos:station:WAVCIS:CSI03:1,2008-09-01T04:00:00Z,29.4412,-92.0613,1006.056,11111222 
WAVCIS,ioos:station:WAVCIS:CSI03:1,2008-09-01T05:00:00Z,29.4412,-92.0613,1005.182,11111222 
WAVCIS,ioos:station:WAVCIS:CSI03:1,2008-09-01T06:00:00Z,29.4412,-92.0613,1004.599,11111222 
WAVCIS,ioos:station:WAVCIS:CSI03:1,2008-09-01T07:00:00Z,29.4412,-92.0613,1003.258,11111222 
WAVCIS,ioos:station:WAVCIS:CSI03:1,2008-09-01T08:00:00Z,29.4412,-92.0613,1001.744,11111222 
WAVCIS,ioos:station:WAVCIS:CSI03:1,2008-09-01T09:00:00Z,29.4412,-92.0613,1000.69,11111222 
WAVCIS,ioos:station:WAVCIS:CSI03:1,2008-09-01T14:00:00Z,29.4412,-92.0613,993.433,11111222 
WAVCIS,ioos:station:WAVCIS:CSI03:1,2008-09-01T15:00:00Z,29.4412,-92.0613,991.51,11111222 
WAVCIS,ioos:station:WAVCIS:CSI03:1,2008-09-01T16:00:00Z,29.4412,-92.0613,988.75,11111222 
WAVCIS,ioos:station:WAVCIS:CSI03:1,2008-09-01T17:00:00Z,29.4412,-92.0613,986.22,11111222 
WAVCIS,ioos:station:WAVCIS:CSI03:1,2008-09-01T18:00:00Z,29.4412,-92.0613,984.32,11111222 
WAVCIS,ioos:station:WAVCIS:CSI03:1,2008-09-01T19:00:00Z,29.4412,-92.0613,984.39,11111222 
WAVCIS,ioos:station:WAVCIS:CSI03:1,2008-09-01T20:00:00Z,29.4412,-92.0613,985.27,11111222 
WAVCIS,ioos:station:WAVCIS:CSI03:1,2008-09-01T21:00:00Z,29.4412,-92.0613,986.98,11111222 
WAVCIS,ioos:station:WAVCIS:CSI03:1,2008-09-01T22:00:00Z,29.4412,-92.0613,989.15,11111222 
WAVCIS,ioos:station:WAVCIS:CSI03:1,2008-09-01T23:00:00Z,29.4412,-92.0613,991.47,11111222 
WAVCIS,ioos:station:WAVCIS:CSI03:1,2008-09-02T00:00:00Z,29.4412,-92.0613,993.404,11111222 
WAVCIS,ioos:station:WAVCIS:CSI03:1,2008-09-02T01:00:00Z,29.4412,-92.0613,994.976,11111222 
WAVCIS,ioos:station:WAVCIS:CSI03:1,2008-09-02T02:00:00Z,29.4412,-92.0613,996.72,11111222 
WAVCIS,ioos:station:WAVCIS:CSI03:1,2008-09-02T03:00:00Z,29.4412,-92.0613,998.186,11111222 
WAVCIS,ioos:station:WAVCIS:CSI03:1,2008-09-02T04:00:00Z,29.4412,-92.0613,999.267,11111222 
WAVCIS,ioos:station:WAVCIS:CSI03:1,2008-09-02T05:00:00Z,29.4412,-92.0613,1000.138,11111222 
WAVCIS,ioos:station:WAVCIS:CSI03:1,2008-09-02T06:00:00Z,29.4412,-92.0613,1000.611,11111222 
WAVCIS,ioos:station:WAVCIS:CSI03:1,2008-09-02T07:00:00Z,29.4412,-92.0613,1001.155,11111222 
WAVCIS,ioos:station:WAVCIS:CSI03:1,2008-09-02T08:00:00Z,29.4412,-92.0613,1001.143,11111222 
WAVCIS,ioos:station:WAVCIS:CSI03:1,2008-09-02T09:00:00Z,29.4412,-92.0613,1001.467,11111222 
WAVCIS,ioos:station:WAVCIS:CSI03:1,2008-09-02T10:00:00Z,29.4412,-92.0613,1002.034,11111222 
WAVCIS,ioos:station:WAVCIS:CSI03:1,2008-09-02T11:00:00Z,29.4412,-92.0613,1002.611,11111222 
WAVCIS,ioos:station:WAVCIS:CSI03:1,2008-09-02T12:00:00Z,29.4412,-92.0613,1003.201,11111222 
WAVCIS,ioos:station:WAVCIS:CSI03:1,2008-09-02T13:00:00Z,29.4412,-92.0613,1003.758,11111222 
WAVCIS,ioos:station:WAVCIS:CSI03:1,2008-09-02T14:00:00Z,29.4412,-92.0613,1004.777,11111222 
WAVCIS,ioos:station:WAVCIS:CSI03:1,2008-09-02T15:00:00Z,29.4412,-92.0613,1005.389,11111222 
WAVCIS,ioos:station:WAVCIS:CSI03:1,2008-09-02T16:00:00Z,29.4412,-92.0613,1006.158,11111222 
WAVCIS,ioos:station:WAVCIS:CSI03:1,2008-09-02T17:00:00Z,29.4412,-92.0613,1006.331,11111222 
WAVCIS,ioos:station:WAVCIS:CSI03:1,2008-09-02T18:00:00Z,29.4412,-92.0613,1006.601,11111222 
WAVCIS,ioos:station:WAVCIS:CSI03:1,2008-09-02T19:00:00Z,29.4412,-92.0613,1006.278,11111222 
WAVCIS,ioos:station:WAVCIS:CSI03:1,2008-09-02T20:00:00Z,29.4412,-92.0613,1006.012,11111222 
WAVCIS,ioos:station:WAVCIS:CSI03:1,2008-09-02T21:00:00Z,29.4412,-92.0613,1005.702,11111222 
WAVCIS,ioos:station:WAVCIS:CSI03:1,2008-09-02T22:00:00Z,29.4412,-92.0613,1005.496,11111222 
WAVCIS,ioos:station:WAVCIS:CSI03:1,2008-09-02T23:00:00Z,29.4412,-92.0613,1005.538,11111222 
WAVCIS,ioos:station:WAVCIS:CSI03:1,2008-09-03T00:00:00Z,29.4412,-92.0613,1005.472,11111222 
WAVCIS,ioos:station:WAVCIS:CSI03:1,2008-09-03T01:00:00Z,29.4412,-92.0613,1005.856,11111222 
WAVCIS,ioos:station:WAVCIS:CSI03:1,2008-09-03T02:00:00Z,29.4412,-92.0613,1006.489,11111222 
WAVCIS,ioos:station:WAVCIS:CSI03:1,2008-09-03T03:00:00Z,29.4412,-92.0613,1006.627,11111222 
WAVCIS,ioos:station:WAVCIS:CSI03:1,2008-09-03T04:00:00Z,29.4412,-92.0613,1006.722,11111222 
WAVCIS,ioos:station:WAVCIS:CSI03:1,2008-09-03T05:00:00Z,29.4412,-92.0613,1006.508,11111222 
WAVCIS,ioos:station:WAVCIS:CSI03:1,2008-09-03T06:00:00Z,29.4412,-92.0613,1006.776,11111222 
WAVCIS,ioos:station:WAVCIS:CSI03:1,2008-09-03T07:00:00Z,29.4412,-92.0613,1006.302,11111222 
WAVCIS,ioos:station:WAVCIS:CSI03:1,2008-09-03T08:00:00Z,29.4412,-92.0613,1005.869,11111222 
WAVCIS,ioos:station:WAVCIS:CSI03:1,2008-09-03T09:00:00Z,29.4412,-92.0613,1006.087,11111222 
WAVCIS,ioos:station:WAVCIS:CSI03:1,2008-09-03T10:00:00Z,29.4412,-92.0613,1005.865,11111222 
WAVCIS,ioos:station:WAVCIS:CSI03:1,2008-09-03T11:00:00Z,29.4412,-92.0613,1006.572,11111222 
WAVCIS,ioos:station:WAVCIS:CSI03:1,2008-09-03T12:00:00Z,29.4412,-92.0613,1007.32,11111222 
WAVCIS,ioos:station:WAVCIS:CSI03:1,2008-09-03T13:00:00Z,29.4412,-92.0613,1007.63,11111222 
WAVCIS,ioos:station:WAVCIS:CSI03:1,2008-09-03T14:00:00Z,29.4412,-92.0613,1007.58,11111222 
WAVCIS,ioos:station:WAVCIS:CSI03:1,2008-09-03T15:00:00Z,29.4412,-92.0613,1007.74,11111222 
WAVCIS,ioos:station:WAVCIS:CSI03:1,2008-09-03T16:00:00Z,29.4412,-92.0613,1007.82,11111222 
WAVCIS,ioos:station:WAVCIS:CSI03:1,2008-09-03T17:00:00Z,29.4412,-92.0613,1008.06,11111222 
WAVCIS,ioos:station:WAVCIS:CSI03:1,2008-09-03T18:00:00Z,29.4412,-92.0613,1007.42,11111222 
WAVCIS,ioos:station:WAVCIS:CSI03:1,2008-09-03T19:00:00Z,29.4412,-92.0613,1006.797,11111222 
WAVCIS,ioos:station:WAVCIS:CSI03:1,2008-09-03T20:00:00Z,29.4412,-92.0613,1006.473,11111222 
WAVCIS,ioos:station:WAVCIS:CSI03:1,2008-09-03T21:00:00Z,29.4412,-92.0613,1005.914,11111222 
WAVCIS,ioos:station:WAVCIS:CSI03:1,2008-09-03T22:00:00Z,29.4412,-92.0613,1005.866,11111222 
WAVCIS,ioos:station:WAVCIS:CSI03:1,2008-09-03T23:00:00Z,29.4412,-92.0613,1005.883,11111222 
WAVCIS,ioos:station:WAVCIS:CSI03:1,2008-09-04T00:00:00Z,29.4412,-92.0613,1005.542,11111222 
WAVCIS,ioos:station:WAVCIS:CSI03:1,2008-09-04T01:00:00Z,29.4412,-92.0613,1005.521,11111222 
WAVCIS,ioos:station:WAVCIS:CSI03:1,2008-09-04T02:00:00Z,29.4412,-92.0613,1005.953,11111222 
WAVCIS,ioos:station:WAVCIS:CSI03:1,2008-09-04T03:00:00Z,29.4412,-92.0613,1006.436,11111222 
WAVCIS,ioos:station:WAVCIS:CSI03:1,2008-09-04T04:00:00Z,29.4412,-92.0613,1006.586,11111222 
WAVCIS,ioos:station:WAVCIS:CSI03:1,2008-09-04T05:00:00Z,29.4412,-92.0613,1006.649,11111222 
WAVCIS,ioos:station:WAVCIS:CSI03:1,2008-09-04T06:00:00Z,29.4412,-92.0613,1006.824,11111222 
WAVCIS,ioos:station:WAVCIS:CSI03:1,2008-09-04T07:00:00Z,29.4412,-92.0613,1006.732,11111222 
WAVCIS,ioos:station:WAVCIS:CSI03:1,2008-09-04T08:00:00Z,29.4412,-92.0613,1006.302,11111222 
WAVCIS,ioos:station:WAVCIS:CSI03:1,2008-09-04T09:00:00Z,29.4412,-92.0613,1005.953,11111222 
WAVCIS,ioos:station:WAVCIS:CSI03:1,2008-09-04T10:00:00Z,29.4412,-92.0613,1006.235,11111222 
WAVCIS,ioos:station:WAVCIS:CSI03:1,2008-09-04T11:00:00Z,29.4412,-92.0613,1007.19,11111222 
WAVCIS,ioos:station:WAVCIS:CSI03:1,2008-09-04T12:00:00Z,29.4412,-92.0613,1008.15,11111222 
WAVCIS,ioos:station:WAVCIS:CSI03:1,2008-09-04T13:00:00Z,29.4412,-92.0613,1007.58,11111222 
WAVCIS,ioos:station:WAVCIS:CSI03:1,2008-09-04T14:00:00Z,29.4412,-92.0613,1007.53,11111222 
WAVCIS,ioos:station:WAVCIS:CSI03:1,2008-09-04T15:00:00Z,29.4412,-92.0613,1008.06,11111222 
WAVCIS,ioos:station:WAVCIS:CSI03:1,2008-09-04T16:00:00Z,29.4412,-92.0613,1008.45,11111222 
WAVCIS,ioos:station:WAVCIS:CSI03:1,2008-09-04T17:00:00Z,29.4412,-92.0613,1008.03,11111222 
WAVCIS,ioos:station:WAVCIS:CSI03:1,2008-09-04T18:00:00Z,29.4412,-92.0613,1007.58,11111222 
WAVCIS,ioos:station:WAVCIS:CSI03:1,2008-09-04T19:00:00Z,29.4412,-92.0613,1007.3,11111222 
WAVCIS,ioos:station:WAVCIS:CSI03:1,2008-09-04T20:00:00Z,29.4412,-92.0613,1006.794,11111222 
WAVCIS,ioos:station:WAVCIS:CSI03:1,2008-09-04T21:00:00Z,29.4412,-92.0613,1006.183,11111222 
WAVCIS,ioos:station:WAVCIS:CSI03:1,2008-09-04T22:00:00Z,29.4412,-92.0613,1006.039,11111222 
WAVCIS,ioos:station:WAVCIS:CSI03:1,2008-09-04T23:00:00Z,29.4412,-92.0613,1005.909,11111222 
WAVCIS,ioos:station:WAVCIS:CSI03:1,2008-09-05T00:00:00Z,29.4412,-92.0613,1006.012,11111222 
WAVCIS,ioos:station:WAVCIS:CSI03:1,2008-09-05T01:00:00Z,29.4412,-92.0613,1006.238,11111222 
WAVCIS,ioos:station:WAVCIS:CSI03:1,2008-09-05T02:00:00Z,29.4412,-92.0613,1006.691,11111222 
WAVCIS,ioos:station:WAVCIS:CSI03:1,2008-09-05T03:00:00Z,29.4412,-92.0613,1007.2,11111222 
WAVCIS,ioos:station:WAVCIS:CSI03:1,2008-09-05T04:00:00Z,29.4412,-92.0613,1007.83,11111222 
WAVCIS,ioos:station:WAVCIS:CSI03:1,2008-09-05T05:00:00Z,29.4412,-92.0613,1007.92,11111222 
WAVCIS,ioos:station:WAVCIS:CSI03:1,2008-09-05T06:00:00Z,29.4412,-92.0613,1007.94,11111222 
WAVCIS,ioos:station:WAVCIS:CSI03:1,2008-09-05T07:00:00Z,29.4412,-92.0613,1007.99,11111222 
WAVCIS,ioos:station:WAVCIS:CSI03:1,2008-09-05T08:00:00Z,29.4412,-92.0613,1008.25,11111222 
WAVCIS,ioos:station:WAVCIS:CSI03:1,2008-09-07T01:00:00Z,29.4412,-92.0613,1012.93,11111222 
WAVCIS,ioos:station:WAVCIS:CSI03:1,2008-09-07T02:00:00Z,29.4412,-92.0613,1013.51,11111222 
WAVCIS,ioos:station:WAVCIS:CSI03:1,2008-09-07T03:00:00Z,29.4412,-92.0613,1013.92,11111222 
WAVCIS,ioos:station:WAVCIS:CSI03:1,2008-09-07T04:00:00Z,29.4412,-92.0613,1014.18,11111222 
WAVCIS,ioos:station:WAVCIS:CSI03:1,2008-09-07T05:00:00Z,29.4412,-92.0613,1014.3,11111222 
WAVCIS,ioos:station:WAVCIS:CSI03:1,2008-09-07T06:00:00Z,29.4412,-92.0613,1014.28,11111222 
WAVCIS,ioos:station:WAVCIS:CSI03:1,2008-09-07T07:00:00Z,29.4412,-92.0613,1014.05,11111222 
WAVCIS,ioos:station:WAVCIS:CSI03:1,2008-09-07T08:00:00Z,29.4412,-92.0613,1013.73,11111222 
WAVCIS,ioos:station:WAVCIS:CSI03:1,2008-09-07T09:00:00Z,29.4412,-92.0613,1013.51,11111222 
WAVCIS,ioos:station:WAVCIS:CSI03:1,2008-09-07T10:00:00Z,29.4412,-92.0613,1013.54,11111222 
WAVCIS,ioos:station:WAVCIS:CSI03:1,2008-09-07T11:00:00Z,29.4412,-92.0613,1014.07,11111222 
WAVCIS,ioos:station:WAVCIS:CSI03:1,2008-09-07T12:00:00Z,29.4412,-92.0613,1014.51,11111222 
WAVCIS,ioos:station:WAVCIS:CSI03:1,2008-09-07T13:00:00Z,29.4412,-92.0613,1015.65,11111222 
WAVCIS,ioos:station:WAVCIS:CSI03:1,2008-09-07T14:00:00Z,29.4412,-92.0613,1016.16,11111222 
WAVCIS,ioos:station:WAVCIS:CSI03:1,2008-09-07T15:00:00Z,29.4412,-92.0613,1016.7,11111222 
WAVCIS,ioos:station:WAVCIS:CSI03:1,2008-09-07T16:00:00Z,29.4412,-92.0613,1016.88,11111222 
WAVCIS,ioos:station:WAVCIS:CSI03:1,2008-09-07T17:00:00Z,29.4412,-92.0613,1016.58,11111222 
WAVCIS,ioos:station:WAVCIS:CSI03:1,2008-09-07T18:00:00Z,29.4412,-92.0613,1016.27,11111222 
WAVCIS,ioos:station:WAVCIS:CSI03:1,2008-09-07T19:00:00Z,29.4412,-92.0613,1015.73,11111222 
WAVCIS,ioos:station:WAVCIS:CSI03:1,2008-09-07T20:00:00Z,29.4412,-92.0613,1015.18,11111222 
WAVCIS,ioos:station:WAVCIS:CSI03:1,2008-09-07T21:00:00Z,29.4412,-92.0613,1014.7,11111222 
WAVCIS,ioos:station:WAVCIS:CSI03:1,2008-09-07T22:00:00Z,29.4412,-92.0613,1014.08,11111222 
WAVCIS,ioos:station:WAVCIS:CSI03:1,2008-09-07T23:00:00Z,29.4412,-92.0613,1014.27,11111222 
WAVCIS,ioos:station:WAVCIS:CSI03:1,2008-09-08T00:00:00Z,29.4412,-92.0613,1014.42,11111222 
WAVCIS,ioos:station:WAVCIS:CSI03:1,2008-09-08T01:00:00Z,29.4412,-92.0613,1014.28,11111222 
WAVCIS,ioos:station:WAVCIS:CSI03:1,2008-09-08T02:00:00Z,29.4412,-92.0613,1014.71,11111222 
WAVCIS,ioos:station:WAVCIS:CSI03:1,2008-09-08T03:00:00Z,29.4412,-92.0613,1015.21,11111222 
WAVCIS,ioos:station:WAVCIS:CSI03:1,2008-09-08T04:00:00Z,29.4412,-92.0613,1014.98,11111222 
WAVCIS,ioos:station:WAVCIS:CSI03:1,2008-09-08T05:00:00Z,29.4412,-92.0613,1014.72,11111222 
WAVCIS,ioos:station:WAVCIS:CSI03:1,2008-09-08T06:00:00Z,29.4412,-92.0613,1014.83,11111222 
WAVCIS,ioos:station:WAVCIS:CSI03:1,2008-09-08T07:00:00Z,29.4412,-92.0613,1014.62,11111222 
WAVCIS,ioos:station:WAVCIS:CSI03:1,2008-09-08T08:00:00Z,29.4412,-92.0613,1014.58,11111222 
WAVCIS,ioos:station:WAVCIS:CSI03:1,2008-09-08T09:00:00Z,29.4412,-92.0613,1014.26,11111222 
WAVCIS,ioos:station:WAVCIS:CSI03:1,2008-09-08T10:00:00Z,29.4412,-92.0613,1014.17,11111222 
WAVCIS,ioos:station:WAVCIS:CSI03:1,2008-09-08T11:00:00Z,29.4412,-92.0613,1014.49,11111222 
WAVCIS,ioos:station:WAVCIS:CSI03:1,2008-09-08T12:00:00Z,29.4412,-92.0613,1014.97,11111222 
WAVCIS,ioos:station:WAVCIS:CSI03:1,2008-09-08T13:00:00Z,29.4412,-92.0613,1015.04,11111222 
WAVCIS,ioos:station:WAVCIS:CSI03:1,2008-09-08T14:00:00Z,29.4412,-92.0613,1015.12,11111222 
WAVCIS,ioos:station:WAVCIS:CSI03:1,2008-09-08T15:00:00Z,29.4412,-92.0613,1015.5,11111222 
WAVCIS,ioos:station:WAVCIS:CSI03:1,2008-09-08T16:00:00Z,29.4412,-92.0613,1015.83,11111222 
WAVCIS,ioos:station:WAVCIS:CSI03:1,2008-09-08T17:00:00Z,29.4412,-92.0613,1015.45,11111222 
WAVCIS,ioos:station:WAVCIS:CSI03:1,2008-09-08T18:00:00Z,29.4412,-92.0613,1014.92,11111222 
WAVCIS,ioos:station:WAVCIS:CSI03:1,2008-09-08T19:00:00Z,29.4412,-92.0613,1014.45,11111222 
WAVCIS,ioos:station:WAVCIS:CSI03:1,2008-09-08T20:00:00Z,29.4412,-92.0613,1013.81,11111222 
WAVCIS,ioos:station:WAVCIS:CSI03:1,2008-09-08T21:00:00Z,29.4412,-92.0613,1012.98,11111222 
WAVCIS,ioos:station:WAVCIS:CSI03:1,2008-09-08T22:00:00Z,29.4412,-92.0613,1012.24,11111222 
WAVCIS,ioos:station:WAVCIS:CSI03:1,2008-09-08T23:00:00Z,29.4412,-92.0613,1012.39,11111222 
WAVCIS,ioos:station:WAVCIS:CSI03:1,2008-09-09T00:00:00Z,29.4412,-92.0613,1012.97,11111222 
WAVCIS,ioos:station:WAVCIS:CSI03:1,2008-09-09T01:00:00Z,29.4412,-92.0613,1013.21,11111222 
WAVCIS,ioos:station:WAVCIS:CSI03:1,2008-09-09T02:00:00Z,29.4412,-92.0613,1013.74,11111222 
WAVCIS,ioos:station:WAVCIS:CSI03:1,2008-09-09T03:00:00Z,29.4412,-92.0613,1013.76,11111222 
WAVCIS,ioos:station:WAVCIS:CSI03:1,2008-09-09T04:00:00Z,29.4412,-92.0613,1013.56,11111222 
WAVCIS,ioos:station:WAVCIS:CSI03:1,2008-09-09T05:00:00Z,29.4412,-92.0613,1013.4,11111222 
WAVCIS,ioos:station:WAVCIS:CSI03:1,2008-09-09T06:00:00Z,29.4412,-92.0613,1012.83,11111222 
WAVCIS,ioos:station:WAVCIS:CSI03:1,2008-09-09T07:00:00Z,29.4412,-92.0613,1012.36,11111222 
WAVCIS,ioos:station:WAVCIS:CSI03:1,2008-09-09T08:00:00Z,29.4412,-92.0613,1012.32,11111222 
WAVCIS,ioos:station:WAVCIS:CSI03:1,2008-09-09T09:00:00Z,29.4412,-92.0613,1011.81,11111222 
WAVCIS,ioos:station:WAVCIS:CSI03:1,2008-09-09T10:00:00Z,29.4412,-92.0613,1012.09,11111222 
WAVCIS,ioos:station:WAVCIS:CSI03:1,2008-09-09T11:00:00Z,29.4412,-92.0613,1012.54,11111222 
WAVCIS,ioos:station:WAVCIS:CSI03:1,2008-09-09T12:00:00Z,29.4412,-92.0613,1012.99,11111222 
WAVCIS,ioos:station:WAVCIS:CSI03:1,2008-09-09T13:00:00Z,29.4412,-92.0613,1013.29,11111222 
WAVCIS,ioos:station:WAVCIS:CSI03:1,2008-09-09T14:00:00Z,29.4412,-92.0613,1013.48,11111222 
WAVCIS,ioos:station:WAVCIS:CSI03:1,2008-09-09T15:00:00Z,29.4412,-92.0613,1013.72,11111222 
WAVCIS,ioos:station:WAVCIS:CSI03:1,2008-09-09T16:00:00Z,29.4412,-92.0613,1013.81,11111222 
WAVCIS,ioos:station:WAVCIS:CSI03:1,2008-09-09T17:00:00Z,29.4412,-92.0613,1013.6,11111222 
WAVCIS,ioos:station:WAVCIS:CSI03:1,2008-09-09T18:00:00Z,29.4412,-92.0613,1013.26,11111222 
WAVCIS,ioos:station:WAVCIS:CSI03:1,2008-09-09T19:00:00Z,29.4412,-92.0613,1012.4,11111222 
WAVCIS,ioos:station:WAVCIS:CSI03:1,2008-09-09T20:00:00Z,29.4412,-92.0613,1011.79,11111222 
WAVCIS,ioos:station:WAVCIS:CSI03:1,2008-09-09T21:00:00Z,29.4412,-92.0613,1011.03,11111222 
WAVCIS,ioos:station:WAVCIS:CSI03:1,2008-09-09T22:00:00Z,29.4412,-92.0613,1010.88,11111222 
WAVCIS,ioos:station:WAVCIS:CSI03:1,2008-09-09T23:00:00Z,29.4412,-92.0613,1010.76,11111222 
WAVCIS,ioos:station:WAVCIS:CSI03:1,2008-09-10T00:00:00Z,29.4412,-92.0613,1010.98,11111222 
WAVCIS,ioos:station:WAVCIS:CSI03:1,2008-09-10T01:00:00Z,29.4412,-92.0613,1011.21,11111222 
WAVCIS,ioos:station:WAVCIS:CSI03:1,2008-09-10T02:00:00Z,29.4412,-92.0613,1011.72,11111222 
WAVCIS,ioos:station:WAVCIS:CSI03:1,2008-09-10T03:00:00Z,29.4412,-92.0613,1011.96,11111222 
WAVCIS,ioos:station:WAVCIS:CSI03:1,2008-09-10T04:00:00Z,29.4412,-92.0613,1011.78,11111222 
WAVCIS,ioos:station:WAVCIS:CSI03:1,2008-09-10T05:00:00Z,29.4412,-92.0613,1011.5,11111222 
WAVCIS,ioos:station:WAVCIS:CSI03:1,2008-09-10T06:00:00Z,29.4412,-92.0613,1011.22,11111222 
WAVCIS,ioos:station:WAVCIS:CSI03:1,2008-09-10T07:00:00Z,29.4412,-92.0613,1011.06,11111222 
WAVCIS,ioos:station:WAVCIS:CSI03:1,2008-09-10T08:00:00Z,29.4412,-92.0613,1010.58,11111222 
WAVCIS,ioos:station:WAVCIS:CSI03:1,2008-09-10T09:00:00Z,29.4412,-92.0613,1010.51,11111222 
WAVCIS,ioos:station:WAVCIS:CSI03:1,2008-09-10T10:00:00Z,29.4412,-92.0613,1010.47,11111222 
WAVCIS,ioos:station:WAVCIS:CSI03:1,2008-09-10T11:00:00Z,29.4412,-92.0613,1010.76,11111222 
WAVCIS,ioos:station:WAVCIS:CSI03:1,2008-09-10T12:00:00Z,29.4412,-92.0613,1011.08,11111222 
WAVCIS,ioos:station:WAVCIS:CSI03:1,2008-09-10T13:00:00Z,29.4412,-92.0613,1011.69,11111222 
WAVCIS,ioos:station:WAVCIS:CSI03:1,2008-09-10T14:00:00Z,29.4412,-92.0613,1012.01,11111222 
WAVCIS,ioos:station:WAVCIS:CSI03:1,2008-09-10T15:00:00Z,29.4412,-92.0613,1012.29,11111222 
WAVCIS,ioos:station:WAVCIS:CSI03:1,2008-09-10T16:00:00Z,29.4412,-92.0613,1012.43,11111222 
WAVCIS,ioos:station:WAVCIS:CSI03:1,2008-09-10T17:00:00Z,29.4412,-92.0613,1011.97,11111222 
WAVCIS,ioos:station:WAVCIS:CSI03:1,2008-09-10T18:00:00Z,29.4412,-92.0613,1011.4,11111222 
WAVCIS,ioos:station:WAVCIS:CSI03:1,2008-09-10T19:00:00Z,29.4412,-92.0613,1010.95,11111222 
WAVCIS,ioos:station:WAVCIS:CSI03:1,2008-09-10T20:00:00Z,29.4412,-92.0613,1010.38,11111222 
WAVCIS,ioos:station:WAVCIS:CSI03:1,2008-09-10T21:00:00Z,29.4412,-92.0613,1009.73,11111222 
WAVCIS,ioos:station:WAVCIS:CSI03:1,2008-09-10T22:00:00Z,29.4412,-92.0613,1009.35,11111222 
WAVCIS,ioos:station:WAVCIS:CSI03:1,2008-09-10T23:00:00Z,29.4412,-92.0613,1009.4,11111222 
WAVCIS,ioos:station:WAVCIS:CSI03:1,2008-09-11T00:00:00Z,29.4412,-92.0613,1009.32,11111222 
WAVCIS,ioos:station:WAVCIS:CSI03:1,2008-09-11T01:00:00Z,29.4412,-92.0613,1009.57,11111222 
WAVCIS,ioos:station:WAVCIS:CSI03:1,2008-09-11T02:00:00Z,29.4412,-92.0613,1010.02,11111222 
WAVCIS,ioos:station:WAVCIS:CSI03:1,2008-09-11T03:00:00Z,29.4412,-92.0613,1010.59,11111222 
WAVCIS,ioos:station:WAVCIS:CSI03:1,2008-09-11T04:00:00Z,29.4412,-92.0613,1010.41,11111222 
WAVCIS,ioos:station:WAVCIS:CSI03:1,2008-09-11T05:00:00Z,29.4412,-92.0613,1010.08,11111222 
WAVCIS,ioos:station:WAVCIS:CSI03:1,2008-09-11T06:00:00Z,29.4412,-92.0613,1009.73,11111222 
WAVCIS,ioos:station:WAVCIS:CSI03:1,2008-09-11T07:00:00Z,29.4412,-92.0613,1009.19,11111222 
WAVCIS,ioos:station:WAVCIS:CSI03:1,2008-09-11T08:00:00Z,29.4412,-92.0613,1008.77,11111222 
WAVCIS,ioos:station:WAVCIS:CSI03:1,2008-09-11T09:00:00Z,29.4412,-92.0613,1008.55,11111222 
WAVCIS,ioos:station:WAVCIS:CSI03:1,2008-09-11T10:00:00Z,29.4412,-92.0613,1008.72,11111222 
WAVCIS,ioos:station:WAVCIS:CSI03:1,2008-09-11T11:00:00Z,29.4412,-92.0613,1008.65,11111222 
WAVCIS,ioos:station:WAVCIS:CSI03:1,2008-09-11T12:00:00Z,29.4412,-92.0613,1009.01,11111222 
WAVCIS,ioos:station:WAVCIS:CSI03:1,2008-09-11T13:00:00Z,29.4412,-92.0613,1008.91,11111222 
WAVCIS,ioos:station:WAVCIS:CSI03:1,2008-09-11T14:00:00Z,29.4412,-92.0613,1008.95,11111222 
WAVCIS,ioos:station:WAVCIS:CSI03:1,2008-09-11T15:00:00Z,29.4412,-92.0613,1009.4,11111222 
WAVCIS,ioos:station:WAVCIS:CSI03:1,2008-09-11T16:00:00Z,29.4412,-92.0613,1009.34,11111222 
WAVCIS,ioos:station:WAVCIS:CSI03:1,2008-09-11T17:00:00Z,29.4412,-92.0613,1008.86,11111222 
WAVCIS,ioos:station:WAVCIS:CSI03:1,2008-09-11T18:00:00Z,29.4412,-92.0613,1008.31,11111222 
WAVCIS,ioos:station:WAVCIS:CSI03:1,2008-09-11T19:00:00Z,29.4412,-92.0613,1007.31,11111222 
WAVCIS,ioos:station:WAVCIS:CSI03:1,2008-09-11T20:00:00Z,29.4412,-92.0613,1006.391,11111222 
WAVCIS,ioos:station:WAVCIS:CSI03:1,2008-09-11T21:00:00Z,29.4412,-92.0613,1005.491,11111222 
WAVCIS,ioos:station:WAVCIS:CSI03:1,2008-09-11T22:00:00Z,29.4412,-92.0613,1005.33,11111222 
WAVCIS,ioos:station:WAVCIS:CSI03:1,2008-09-11T23:00:00Z,29.4412,-92.0613,1005.309,11111222 
WAVCIS,ioos:station:WAVCIS:CSI03:1,2008-09-12T00:00:00Z,29.4412,-92.0613,1004.809,11111222 
WAVCIS,ioos:station:WAVCIS:CSI03:1,2008-09-12T01:00:00Z,29.4412,-92.0613,1004.983,11111222 
WAVCIS,ioos:station:WAVCIS:CSI03:1,2008-09-12T02:00:00Z,29.4412,-92.0613,1005.317,11111222 
WAVCIS,ioos:station:WAVCIS:CSI03:1,2008-09-12T03:00:00Z,29.4412,-92.0613,1005.281,11111222 
WAVCIS,ioos:station:WAVCIS:CSI03:1,2008-09-12T04:00:00Z,29.4412,-92.0613,1005.158,11111222 
WAVCIS,ioos:station:WAVCIS:CSI03:1,2008-09-12T05:00:00Z,29.4412,-92.0613,1004.458,11111222 
WAVCIS,ioos:station:WAVCIS:CSI03:1,2008-09-12T06:00:00Z,29.4412,-92.0613,1003.512,11111222 
WAVCIS,ioos:station:WAVCIS:CSI03:1,2008-09-12T07:00:00Z,29.4412,-92.0613,1002.674,11111222 
WAVCIS,ioos:station:WAVCIS:CSI03:1,2008-09-12T08:00:00Z,29.4412,-92.0613,1002.11,11111222 
WAVCIS,ioos:station:WAVCIS:CSI03:1,2008-09-12T09:00:00Z,29.4412,-92.0613,1000.599,11111222 
WAVCIS,ioos:station:WAVCIS:CSI03:1,2008-09-12T10:00:00Z,29.4412,-92.0613,999.778,11111222 
WAVCIS,ioos:station:WAVCIS:CSI03:1,2008-09-12T11:00:00Z,29.4412,-92.0613,999.593,11111222 
WAVCIS,ioos:station:WAVCIS:CSI03:1,2008-09-12T12:00:00Z,29.4412,-92.0613,999.324,11111222 
WAVCIS,ioos:station:WAVCIS:CSI03:1,2008-09-12T13:00:00Z,29.4412,-92.0613,998.411,11111222 
WAVCIS,ioos:station:WAVCIS:CSI03:1,2008-09-12T14:00:00Z,29.4412,-92.0613,998.263,11111222 
WAVCIS,ioos:station:WAVCIS:CSI03:1,2008-09-12T15:00:00Z,29.4412,-92.0613,998.11,11111222 
WAVCIS,ioos:station:WAVCIS:CSI03:1,2008-09-12T16:00:00Z,29.4412,-92.0613,998.519,11111222 
WAVCIS,ioos:station:WAVCIS:CSI03:1,2008-09-12T17:00:00Z,29.4412,-92.0613,998.511,11111222 
WAVCIS,ioos:station:WAVCIS:CSI03:1,2008-09-12T18:00:00Z,29.4412,-92.0613,997.341,11111222 
WAVCIS,ioos:station:WAVCIS:CSI03:1,2008-09-12T19:00:00Z,29.4412,-92.0613,996.847,11111222 
WAVCIS,ioos:station:WAVCIS:CSI03:1,2008-09-12T20:00:00Z,29.4412,-92.0613,994.808,11111222 
WAVCIS,ioos:station:WAVCIS:CSI03:1,2008-09-12T21:00:00Z,29.4412,-92.0613,994.048,11111222 
WAVCIS,ioos:station:WAVCIS:CSI03:1,2008-09-12T22:00:00Z,29.4412,-92.0613,993.344,11111222 
WAVCIS,ioos:station:WAVCIS:CSI03:1,2008-09-12T23:00:00Z,29.4412,-92.0613,992.32,11111222 
WAVCIS,ioos:station:WAVCIS:CSI03:1,2008-09-13T00:00:00Z,29.4412,-92.0613,993.775,11111222 
WAVCIS,ioos:station:WAVCIS:CSI03:1,2008-09-13T01:00:00Z,29.4412,-92.0613,993.959,11111222 
WAVCIS,ioos:station:WAVCIS:CSI03:1,2008-09-13T02:00:00Z,29.4412,-92.0613,994.471,11111222 
WAVCIS,ioos:station:WAVCIS:CSI03:1,2008-09-13T03:00:00Z,29.4412,-92.0613,996.222,11111222 
WAVCIS,ioos:station:WAVCIS:CSI03:1,2008-09-13T04:00:00Z,29.4412,-92.0613,996.642,11111222 
WAVCIS,ioos:station:WAVCIS:CSI03:1,2008-09-13T05:00:00Z,29.4412,-92.0613,996.26,11111222 
WAVCIS,ioos:station:WAVCIS:CSI03:1,2008-09-13T06:00:00Z,29.4412,-92.0613,996.78,11111222 
WAVCIS,ioos:station:WAVCIS:CSI03:1,2008-09-13T07:00:00Z,29.4412,-92.0613,997.142,11111222 
WAVCIS,ioos:station:WAVCIS:CSI03:1,2008-09-13T08:00:00Z,29.4412,-92.0613,997.929,11111222 
WAVCIS,ioos:station:WAVCIS:CSI03:1,2008-09-13T09:00:00Z,29.4412,-92.0613,997.617,11111222 
WAVCIS,ioos:station:WAVCIS:CSI03:1,2008-09-13T10:00:00Z,29.4412,-92.0613,998.277,11111222 
WAVCIS,ioos:station:WAVCIS:CSI03:1,2008-09-13T11:00:00Z,29.4412,-92.0613,999.458,11111222 
WAVCIS,ioos:station:WAVCIS:CSI03:1,2008-09-13T12:00:00Z,29.4412,-92.0613,1000.345,11111222 
WAVCIS,ioos:station:WAVCIS:CSI03:1,2008-09-13T13:00:00Z,29.4412,-92.0613,1001.014,11111222 
WAVCIS,ioos:station:WAVCIS:CSI03:1,2008-09-13T14:00:00Z,29.4412,-92.0613,1002.149,11111222 
WAVCIS,ioos:station:WAVCIS:CSI03:1,2008-09-13T15:00:00Z,29.4412,-92.0613,1003.208,11111222 
WAVCIS,ioos:station:WAVCIS:CSI03:1,2008-09-13T16:00:00Z,29.4412,-92.0613,1003.887,11111222 
WAVCIS,ioos:station:WAVCIS:CSI03:1,2008-09-13T17:00:00Z,29.4412,-92.0613,1004.418,11111222 